FW6802 Weather Reports


Display with metric or nautical units.
time (UTC)temp
F
wind
direction
speed
MPH
gust
MPH
rain 1hr
in
rain 24hr
in
rain mn
in
humidity
%
barometer
mb
20260905010224 81 140 0.0 11.0 0.00 0.00 0.00 83 1011.1
20260905005724 81 141 1.0 11.0 0.00 0.00 0.00 82 1011.1
20260905005223 81 171 0.0 11.0 0.00 0.00 0.00 82 1010.9
20260905004723 81 171 0.0 11.0 0.00 0.00 0.00 83 1011.1
20260905004223 81 171 1.0 11.0 0.00 0.00 0.00 83 1010.5
20260905003721 81 169 0.0 11.0 0.00 0.00 0.00 83 1010.8
20260905003221 82 164 1.0 11.0 0.00 0.00 0.00 83 1010.9
20260905002720 82 151 2.0 11.0 0.00 0.00 0.00 82 1010.6
20260905002219 82 138 0.0 11.0 0.00 0.00 0.00 82 1011.0
20260905001202 82 130 0.0 11.0 0.00 0.00 0.00 82 1010.8
20260905000702 83 164 0.0 11.0 0.00 0.00 0.00 83 1011.0
20260905000204 83 164 2.0 11.0 0.00 0.00 0.00 81 1010.7
20260904235700 84 151 0.0 11.0 0.00 0.00 0.00 82 1011.0
20260904234644 85 149 0.0 11.0 0.00 0.00 0.00 81 1010.8
20260904234143 85 144 1.0 11.0 0.00 0.00 0.00 80 1010.9
20260904233643 86 159 3.0 11.0 0.00 0.00 0.00 79 1010.6
20260904233142 86 82 2.0 11.0 0.00 0.00 0.00 77 1010.9
20260904232127 88 146 1.0 11.0 0.00 0.00 0.00 75 1010.3
20260904231112 89 87 1.0 11.0 0.00 0.00 0.00 73 1011.1
20260904230611 89 79 1.0 11.0 0.00 0.00 0.00 72 1010.6
20260904230110 89 81 0.0 11.0 0.00 0.00 0.00 72 1010.5
20260904225610 90 80 0.0 11.0 0.00 0.00 0.00 71 1010.7
20260904225109 90 65 1.0 11.0 0.00 0.00 0.00 70 1010.8
20260904224609 91 90 0.0 11.0 0.00 0.00 0.00 69 1010.8
20260904224109 91 359 0.0 11.0 0.00 0.00 0.00 68 1010.9
20260904223609 91 114 0.0 11.0 0.00 0.00 0.00 68 1010.7
20260904222554 91 141 2.0 11.0 0.00 0.00 0.00 67 1012.3
20260904221022 92 78 3.0 11.0 0.00 0.00 0.00 66 1011.5
20260904220522 92 147 2.0 11.0 0.00 0.00 0.00 66 1011.7
20260904220022 92 157 1.0 11.0 0.00 0.00 0.00 65 1011.0
20260904215522 92 59 1.0 11.0 0.00 0.00 0.00 65 1010.9
20260904215022 92 110 0.0 11.0 0.00 0.00 0.00 64 1011.0
20260904214521 93 162 2.0 11.0 0.00 0.00 0.00 63 1010.8
20260904214021 93 104 1.0 11.0 0.00 0.00 0.00 63 1011.0
20260904213521 93 87 1.0 11.0 0.00 0.00 0.00 62 1011.2
20260904213021 93 62 3.0 11.0 0.00 0.00 0.00 62 1011.6
20260904212521 93 46 3.0 11.0 0.00 0.00 0.00 61 1011.9
20260904212021 93 65 1.0 11.0 0.00 0.00 0.00 60 1011.5
20260904211521 92 68 2.0 11.0 0.00 0.00 0.00 63 1011.5
20260904211021 91 74 0.0 11.0 0.00 0.00 0.00 64 1011.1
20260904210521 91 57 1.0 11.0 0.00 0.00 0.00 65 1011.1
20260904210021 91 45 7.0 11.0 0.00 0.00 0.00 65 1011.0
20260904205521 91 143 1.0 13.0 0.00 0.00 0.00 66 1010.6
20260904205020 91 183 4.0 13.0 0.00 0.00 0.00 66 1011.2
20260904204519 91 102 2.0 13.0 0.00 0.00 0.00 65 1011.1
20260904204019 91 162 1.0 13.0 0.00 0.00 0.00 65 1011.2
20260904203519 91 143 2.0 13.0 0.00 0.00 0.00 65 1011.2
20260904203019 91 145 3.0 13.0 0.00 0.00 0.00 63 1011.3
20260904202518 91 155 2.0 13.0 0.00 0.00 0.00 61 1011.5
20260904202018 92 162 3.0 13.0 0.00 0.00 0.00 61 1011.6
20260904201517 94 142 5.0 13.0 0.00 0.00 0.00 59 1011.3
20260904201017 95 162 4.0 13.0 0.00 0.00 0.00 57 1011.6
20260904200517 96 173 3.0 13.0 0.00 0.00 0.00 55 1011.7
20260904200017 97 188 3.0 13.0 0.00 0.00 0.00 53 1011.4
20260904195517 97 174 2.0 13.0 0.00 0.00 0.00 53 1012.0
20260904195016 97 141 4.0 13.0 0.00 0.00 0.00 54 1011.4
20260904194516 97 170 3.0 13.0 0.00 0.00 0.00 53 1011.6
20260904194015 97 220 2.0 13.0 0.00 0.00 0.00 53 1011.8
20260904192444 97 298 4.0 11.0 0.00 0.00 0.00 53 1012.3
20260904191943 96 309 4.0 11.0 0.00 0.00 0.00 54 1012.1
20260904191442 95 312 4.0 11.0 0.00 0.00 0.00 54 1012.2
20260904190941 94 312 2.0 11.0 0.00 0.00 0.00 55 1013.1
20260904190440 94 332 1.0 11.0 0.00 0.00 0.00 54 1012.6
20260904185424 95 42 2.0 13.0 0.00 0.00 0.00 55 1012.3
20260904184921 97 301 3.0 13.0 0.00 0.00 0.00 52 1012.3
20260904184420 98 306 4.0 11.0 0.00 0.00 0.00 48 1012.7
20260904183919 99 291 4.0 11.0 0.00 0.00 0.00 46 1012.6
20260904183418 100 252 3.0 11.0 0.00 0.00 0.00 46 1013.0
20260904182918 100 253 3.0 11.0 0.00 0.00 0.00 45 1012.6
20260904182417 100 246 4.0 11.0 0.00 0.00 0.00 45 1012.9
20260904181917 99 277 2.0 11.0 0.00 0.00 0.00 46 1012.8
20260904181416 100 287 2.0 11.0 0.00 0.00 0.00 46 1012.9
20260904180915 100 258 4.0 11.0 0.00 0.00 0.00 45 1013.0
20260904180414 100 279 3.0 11.0 0.00 0.00 0.00 46 1013.1
20260904175914 100 238 2.0 11.0 0.00 0.00 0.00 46 1013.0
20260904175413 100 244 5.0 11.0 0.00 0.00 0.00 46 1013.1
20260904174912 99 240 5.0 11.0 0.00 0.00 0.00 46 1013.4
20260904173856 99 268 3.0 11.0 0.00 0.00 0.00 47 1013.3
20260904173355 98 250 4.0 11.0 0.00 0.00 0.00 49 1013.3
20260904172855 98 270 4.0 11.0 0.00 0.00 0.00 49 1013.5
20260904172354 98 277 2.0 11.0 0.00 0.00 0.00 49 1013.5
20260904171853 99 273 4.0 11.0 0.00 0.00 0.00 48 1013.4
20260904170837 99 286 4.0 11.0 0.00 0.00 0.00 50 1013.7
20260904170336 99 212 3.0 11.0 0.00 0.00 0.00 51 1013.4
20260904165836 99 256 4.0 11.0 0.00 0.00 0.00 50 1013.8
20260904165336 98 253 3.0 11.0 0.00 0.00 0.00 51 1014.0
20260904164320 98 229 5.0 12.0 0.00 0.00 0.00 52 1013.7
20260904163304 97 232 2.0 13.0 0.00 0.00 0.00 54 1013.8
20260904162803 96 265 5.0 13.0 0.00 0.00 0.00 54 1013.8
20260904162305 97 253 4.0 13.0 0.00 0.00 0.00 53 1013.7
20260904161802 97 267 5.0 13.0 0.00 0.00 0.00 54 1014.0
20260904161301 96 230 3.0 13.0 0.00 0.00 0.00 55 1013.7
20260904160800 96 215 3.0 13.0 0.00 0.00 0.00 55 1013.8
20260904160259 96 246 3.0 12.0 0.00 0.00 0.00 55 1013.6
20260904155243 96 217 4.0 12.0 0.00 0.00 0.00 55 1013.7
20260904154742 96 206 4.0 12.0 0.00 0.00 0.00 56 1013.8
20260904154242 95 229 3.0 12.0 0.00 0.00 0.00 56 1013.9
20260904153742 95 210 4.0 12.0 0.00 0.00 0.00 57 1013.9
20260904153242 94 237 4.0 12.0 0.00 0.00 0.00 58 1013.8
20260904152225 94 213 4.0 12.0 0.00 0.00 0.00 59 1014.0
20260904151724 94 213 4.0 12.0 0.00 0.00 0.00 59 1014.0
20260904151223 94 245 3.0 12.0 0.00 0.00 0.00 60 1013.9
20260904150722 93 245 3.0 12.0 0.00 0.00 0.00 60 1014.1
20260904150222 93 247 4.0 12.0 0.00 0.00 0.00 61 1013.7
20260904145722 92 215 3.0 12.0 0.00 0.00 0.00 62 1013.8
20260904145222 91 222 3.0 12.0 0.00 0.00 0.00 63 1014.0
20260904144722 91 218 4.0 12.0 0.00 0.00 0.00 63 1013.7
20260904144222 91 229 3.0 12.0 0.00 0.00 0.00 64 1013.9
20260904143721 91 208 5.0 12.0 0.00 0.00 0.00 64 1013.9
20260904142704 90 224 3.0 12.0 0.00 0.00 0.00 66 1013.4
20260904142204 89 217 2.0 12.0 0.00 0.00 0.00 67 1013.8
20260904141704 89 229 3.0 12.0 0.00 0.00 0.00 68 1013.6
20260904141204 88 214 3.0 12.0 0.00 0.00 0.00 68 1013.5
20260904140704 87 233 2.0 12.0 0.00 0.00 0.00 70 1013.7
20260904140204 87 236 3.0 12.0 0.00 0.00 0.00 71 1013.7
20260904135704 86 225 2.0 12.0 0.00 0.00 0.00 71 1013.7
20260904135203 86 235 2.0 12.0 0.00 0.00 0.00 72 1013.4
20260904134703 86 225 2.0 12.0 0.00 0.00 0.00 72 1013.5
20260904134203 86 227 2.0 12.0 0.00 0.00 0.00 74 1013.5
20260904133702 85 200 1.0 12.0 0.00 0.00 0.00 74 1013.7
20260904132647 84 210 2.0 12.0 0.00 0.00 0.00 75 1013.3
20260904132146 84 206 2.0 12.0 0.00 0.00 0.00 76 1013.6
20260904131645 83 224 2.0 12.0 0.00 0.00 0.00 76 1013.6
20260904131145 83 218 2.0 12.0 0.00 0.00 0.00 78 1013.6
20260904130129 81 199 2.0 12.0 0.00 0.00 0.00 80 1013.6
20260904125629 81 202 2.0 12.0 0.00 0.00 0.00 82 1013.3
20260904125129 80 204 1.0 12.0 0.00 0.00 0.00 83 1013.4
20260904124628 79 208 0.0 12.0 0.00 0.00 0.00 85 1013.4
20260904124127 79 208 1.0 12.0 0.00 0.00 0.00 85 1013.5
20260904123626 79 203 1.0 12.0 0.00 0.00 0.00 86 1013.4
20260904122611 78 201 2.0 12.0 0.00 0.00 0.00 86 1013.3
20260904122110 78 188 2.0 12.0 0.00 0.00 0.00 86 1013.1
20260904121610 78 196 1.0 12.0 0.00 0.00 0.00 87 1012.9
20260904121109 78 194 2.0 12.0 0.00 0.00 0.00 87 1013.0
20260904120608 77 199 2.0 12.0 0.00 0.00 0.00 87 1012.8
20260904120107 77 192 1.0 12.0 0.00 0.00 0.00 88 1013.2
20260904115607 77 181 1.0 12.0 0.00 0.00 0.00 88 1013.0
20260904115106 77 181 0.0 12.0 0.00 0.00 0.00 88 1012.9
20260904114606 77 181 0.0 12.0 0.00 0.00 0.00 87 1012.8
20260904114106 77 181 0.0 12.0 0.00 0.00 0.00 87 1012.9
20260904113050 77 181 0.0 12.0 0.00 0.00 0.00 87 1012.6
20260904112034 77 185 1.0 12.0 0.00 0.00 0.00 87 1012.4
20260904111533 77 185 1.0 12.0 0.00 0.00 0.00 87 1012.7
20260904110517 77 184 1.0 12.0 0.00 0.00 0.00 87 1012.2
20260904110016 77 184 0.0 12.0 0.00 0.00 0.00 87 1012.3
20260904105516 77 191 2.0 12.0 0.00 0.00 0.00 87 1012.0
20260904105015 77 198 1.0 12.0 0.00 0.00 0.00 87 1012.4
20260904104515 77 198 0.0 12.0 0.00 0.00 0.00 86 1012.2
20260904104015 77 198 0.0 12.0 0.00 0.00 0.00 86 1012.1
20260904103515 78 194 2.0 12.0 0.00 0.00 0.00 86 1012.1
20260904103014 78 197 2.0 12.0 0.00 0.00 0.00 86 1012.3
20260904102513 78 191 2.0 12.0 0.00 0.00 0.00 86 1012.5
20260904102013 78 205 1.0 12.0 0.00 0.00 0.00 86 1012.2
20260904101513 78 198 1.0 12.0 0.00 0.00 0.00 86 1012.3
20260904101013 78 182 2.0 12.0 0.00 0.00 0.00 85 1012.3
20260904095957 78 199 1.0 12.0 0.00 0.00 0.00 85 1012.4
20260904095456 78 196 2.0 12.0 0.00 0.00 0.00 85 1012.3
20260904094955 78 199 1.0 12.0 0.00 0.00 0.00 85 1012.3
20260904092909 78 187 0.0 12.0 0.00 0.00 0.00 85 1012.2
20260904092409 78 186 1.0 12.0 0.00 0.00 0.00 85 1012.0
20260904091353 78 183 0.0 12.0 0.00 0.00 0.00 85 1012.1
20260904090853 78 184 0.0 12.0 0.00 0.00 0.00 85 1012.3
20260904090353 79 184 0.0 12.0 0.00 0.00 0.00 85 1012.1
20260904085852 79 184 0.0 12.0 0.00 0.00 0.00 85 1012.3
20260904085352 79 184 1.0 12.0 0.00 0.00 0.00 85 1011.9
20260904084851 79 184 0.0 12.0 0.00 0.00 0.00 85 1012.5
20260904084351 79 184 1.0 12.0 0.00 0.00 0.00 85 1012.3
20260904083851 79 184 1.0 12.0 0.00 0.00 0.00 85 1012.2
20260904083350 79 184 0.0 12.0 0.00 0.00 0.00 85 1012.1
20260904082849 79 184 0.0 12.0 0.00 0.00 0.00 85 1012.1
20260904082349 79 184 0.0 12.0 0.00 0.00 0.00 84 1012.2
20260904080819 79 184 0.0 12.0 0.00 0.00 0.00 84 1012.1
20260904080319 79 184 0.0 12.0 0.00 0.00 0.00 84 1011.9
20260904075818 79 184 1.0 12.0 0.00 0.00 0.00 84 1012.4
20260904075318 79 184 2.0 12.0 0.00 0.00 0.00 84 1012.5
20260904074302 79 184 0.0 12.0 0.00 0.00 0.00 84 1012.5
20260904073802 79 184 0.0 12.0 0.00 0.00 0.00 85 1012.6
20260904073302 79 184 0.0 12.0 0.00 0.00 0.00 84 1012.4
20260904072801 79 184 0.0 12.0 0.00 0.00 0.00 84 1012.4
20260904072300 79 184 0.0 12.0 0.00 0.00 0.00 84 1012.4
20260904071244 79 184 0.0 12.0 0.00 0.00 0.00 84 1012.6
20260904070743 79 184 0.0 12.0 0.00 0.00 0.00 84 1012.7
20260904070243 79 184 0.0 12.0 0.00 0.00 0.00 84 1012.5
20260904065743 80 184 0.0 12.0 0.00 0.00 0.00 84 1012.5
20260904065243 80 184 0.0 12.0 0.00 0.00 0.00 84 1012.7
20260904064743 80 184 0.0 12.0 0.00 0.00 0.00 84 1012.8
20260904064242 80 184 0.0 12.0 0.00 0.00 0.00 84 1012.9
20260904063741 80 184 0.0 12.0 0.00 0.00 0.00 84 1012.6
20260904062724 80 184 0.0 12.0 0.00 0.00 0.00 84 1013.0
20260904062223 80 184 0.0 12.0 0.00 0.00 0.00 84 1012.7
20260904061207 80 184 0.0 12.0 0.00 0.00 0.00 83 1012.9
20260904060707 80 184 0.0 12.0 0.00 0.00 0.00 83 1013.1
20260904060207 80 184 0.0 12.0 0.00 0.00 0.00 83 1012.8
20260904055706 81 184 0.0 12.0 0.00 0.00 0.00 83 1012.9
20260904054649 81 184 0.0 12.0 0.00 0.00 0.00 83 1013.1
20260904053118 81 184 0.0 12.0 0.00 0.00 0.00 82 1012.8
20260904052617 81 184 0.0 12.0 0.00 0.00 0.00 81 1013.1
20260904052116 82 184 0.0 12.0 0.00 0.00 0.00 80 1013.0
20260904051616 82 184 0.0 12.0 0.00 0.00 0.00 80 1012.9
20260904051116 82 184 0.0 12.0 0.00 0.00 0.00 79 1012.9
20260904050616 82 184 0.0 12.0 0.00 0.00 0.00 79 1012.8
20260904050116 82 184 0.0 12.0 0.00 0.00 0.00 79 1012.9
20260904045616 82 184 0.0 12.0 0.00 0.00 0.00 79 1013.0
20260904045116 82 184 1.0 12.0 0.00 0.00 0.00 79 1012.7
20260904044615 82 184 0.0 12.0 0.00 0.00 0.00 79 1013.0
20260904044115 82 184 0.0 12.0 0.00 0.00 0.00 79 1012.7
20260904043100 82 184 0.0 12.0 0.00 0.00 0.00 79 1012.9
20260904042600 82 184 0.0 12.0 0.00 0.00 0.00 79 1012.7
20260904042059 83 184 2.0 12.0 0.00 0.00 0.00 79 1012.7
20260904041558 83 184 1.0 12.0 0.00 0.00 0.00 79 1013.0
20260904041057 83 184 0.0 12.0 0.00 0.00 0.00 79 1012.7
20260904040558 83 184 1.0 12.0 0.00 0.00 0.00 78 1012.7
20260904040057 83 184 1.0 12.0 0.00 0.00 0.00 78 1012.5
20260904035557 83 184 1.0 12.0 0.00 0.00 0.00 78 1012.8
20260904035058 83 184 1.0 12.0 0.00 0.00 0.00 78 1012.5
20260904033526 84 184 1.0 12.0 0.00 0.00 0.00 77 1012.6
20260904033025 84 184 0.0 12.0 0.00 0.00 0.00 77 1012.7
20260904032010 84 184 0.0 12.0 0.00 0.00 0.00 76 1012.7
20260904030955 84 184 1.0 12.0 0.00 0.00 0.00 76 1012.4
20260904030455 84 184 0.0 12.0 0.00 0.00 0.00 76 1012.9
20260904025954 85 184 0.0 12.0 0.00 0.00 0.00 75 1012.7
20260904024423 85 184 1.0 12.0 0.00 0.00 0.00 75 1012.5
20260904023923 85 184 0.0 12.0 0.00 0.00 0.00 75 1012.7
20260904023422 85 184 0.0 12.0 0.00 0.00 0.00 74 1012.8
20260904022921 85 184 0.0 12.0 0.00 0.00 0.00 74 1012.9
20260904022420 85 184 0.0 12.0 0.00 0.00 0.00 74 1012.9
20260904021921 85 184 1.0 12.0 0.00 0.00 0.00 74 1012.7
20260904021421 85 184 0.0 12.0 0.00 0.00 0.00 74 1013.1
20260904020920 85 184 1.0 12.0 0.00 0.00 0.00 73 1012.9
20260904020419 85 184 0.0 12.0 0.00 0.00 0.00 73 1012.6
20260904015918 86 184 0.0 12.0 0.00 0.00 0.00 73 1012.6
20260904015417 86 184 1.0 12.0 0.00 0.00 0.00 73 1012.8
20260904014916 86 184 0.0 12.0 0.00 0.00 0.00 72 1012.6
20260904014415 86 184 0.0 12.0 0.00 0.00 0.00 72 1012.5
20260904013915 86 184 1.0 12.0 0.00 0.00 0.00 72 1012.6
20260904013414 86 184 1.0 12.0 0.00 0.00 0.00 71 1012.8
20260904012913 86 184 1.0 12.0 0.00 0.00 0.00 71 1012.7
20260904012412 86 184 1.0 12.0 0.00 0.00 0.00 71 1012.4
20260904011356 87 184 0.0 12.0 0.00 0.00 0.00 70 1012.4